TimeMST,TemperatureF,Dew PointF,Humidity,Sea Level PressureIn,VisibilityMPH,Wind Direction,Wind SpeedMPH,Gust SpeedMPH,PrecipitationIn,Events,Conditions,WindDirDegrees,DateUTC
12:51 AM,8.1,3.9,83,30.44,10.0,Calm,Calm,-,N/A,,Scattered Clouds,0,2013-02-27 07:51:00
1:51 AM,9.0,5.0,84,30.45,10.0,NNW,4.6,-,N/A,,Mostly Cloudy,330,2013-02-27 08:51:00
2:51 AM,7.0,3.9,87,30.43,10.0,Calm,Calm,-,N/A,,Mostly Cloudy,0,2013-02-27 09:51:00
3:51 AM,7.0,3.0,84,30.42,10.0,ENE,4.6,-,N/A,,Scattered Clouds,60,2013-02-27 10:51:00
4:51 AM,7.0,3.9,87,30.43,10.0,Calm,Calm,-,N/A,,Overcast,0,2013-02-27 11:51:00
5:51 AM,10.9,7.0,84,30.42,10.0,Calm,Calm,-,N/A,,Overcast,0,2013-02-27 12:51:00
6:51 AM,7.0,3.0,84,30.47,10.0,Calm,Calm,-,N/A,,Scattered Clouds,0,2013-02-27 13:51:00
7:51 AM,3.9,1.9,91,30.51,10.0,Calm,Calm,-,N/A,,Partly Cloudy,0,2013-02-27 14:51:00
8:51 AM,8.1,7.0,95,30.52,10.0,Calm,Calm,-,N/A,,Clear,0,2013-02-27 15:51:00
9:51 AM,14.0,12.0,92,30.50,10.0,Calm,Calm,-,N/A,,Clear,0,2013-02-27 16:51:00
10:51 AM,17.1,12.9,84,30.52,10.0,South,3.5,-,N/A,,Clear,170,2013-02-27 17:51:00
11:51 AM,21.9,14.0,72,30.49,10.0,Calm,Calm,-,0.01,,Clear,0,2013-02-27 18:51:00
12:51 PM,26.1,14.0,60,30.48,10.0,South,3.5,-,N/A,,Partly Cloudy,180,2013-02-27 19:51:00
1:51 PM,28.9,14.0,54,30.44,10.0,Calm,Calm,-,N/A,,Partly Cloudy,0,2013-02-27 20:51:00
2:51 PM,30.0,15.1,54,30.43,10.0,Calm,Calm,-,N/A,,Mostly Cloudy,0,2013-02-27 21:51:00
3:51 PM,32.0,15.1,50,30.41,10.0,Calm,Calm,-,N/A,,Scattered Clouds,0,2013-02-27 22:51:00
4:51 PM,32.0,15.1,50,30.42,10.0,Calm,Calm,-,N/A,,Mostly Cloudy,0,2013-02-27 23:51:00
5:51 PM,30.9,14.0,50,30.41,10.0,Calm,Calm,-,N/A,,Clear,0,2013-02-28 00:51:00
6:51 PM,24.1,15.1,69,30.45,7.0,Calm,Calm,-,N/A,,Clear,0,2013-02-28 01:51:00
7:51 PM,21.0,15.1,78,30.47,10.0,Calm,Calm,-,N/A,,Clear,0,2013-02-28 02:51:00
8:51 PM,21.0,15.1,78,30.47,10.0,Calm,Calm,-,N/A,,Overcast,0,2013-02-28 03:51:00
9:51 PM,19.9,15.1,81,30.44,10.0,NNW,5.8,-,N/A,,Partly Cloudy,330,2013-02-28 04:51:00
10:51 PM,18.0,14.0,84,30.45,10.0,NNE,3.5,-,N/A,,Mostly Cloudy,30,2013-02-28 05:51:00
11:51 PM,19.0,14.0,81,30.42,9.0,NW,3.5,-,N/A,,Overcast,320,2013-02-28 06:51:00